This is the latest recevied weather packets stored in our database for station/object KF7PIZ. If no packets are shown the sender has not sent any weather packets the latest 10 day(s).
| Time | Temp. | Humidity | Pressure | Rain* | Wind** | Luminosity | Snow |
|---|---|---|---|---|---|---|---|
| 1777682912 | 27.22° C | 12% | 1015.6 hPa | 0 mm | - | 117 W/m² | - |
| 1777682608 | 27.78° C | 15% | 1016 hPa | 0 mm | - | 127 W/m² | - |
| 1777682306 | 27.78° C | 15% | 1015.8 hPa | 0 mm | - | 131 W/m² | - |
| 1777682003 | 27.22° C | 14% | 1016 hPa | 0 mm | - | 167 W/m² | - |
| 1777681699 | 25.56° C | 17% | 1016 hPa | 0 mm | - | 202 W/m² | - |
| 1777681396 | 25° C | 15% | 1015.7 hPa | 0 mm | - | 184 W/m² | - |
| 1777681093 | 26.11° C | 15% | 1016.1 hPa | 0 mm | - | 100 W/m² | - |
| 1777680791 | 26.11° C | 16% | 1015.7 hPa | 0 mm | - | 82 W/m² | - |
| 1777680488 | 26.11° C | 13% | 1016 hPa | 0 mm | - | 82 W/m² | - |
| 1777680187 | 26.11° C | 14% | 1016 hPa | 0 mm | - | 61 W/m² | - |
| 1777679882 | 26.11° C | 14% | 1016.3 hPa | 0 mm | - | 61 W/m² | - |
| 1777679578 | 26.11° C | 13% | 1016.4 hPa | 0 mm | - | 147 W/m² | - |
| 1777679273 | 26.11° C | 13% | 1016.1 hPa | 0 mm | - | 84 W/m² | - |
| 1777678971 | 26.11° C | 14% | 1016.2 hPa | 0 mm | - | 345 W/m² | - |
| 1777678669 | 25.56° C | 14% | 1016.1 hPa | 0 mm | - | 319 W/m² | - |
| 1777678366 | 26.67° C | 13% | 1016.2 hPa | 0 mm | - | 98 W/m² | - |
| 1777678061 | 25.56° C | 14% | 1016.2 hPa | 0 mm | - | 232 W/m² | - |
| 1777677759 | 25° C | 15% | 1016.3 hPa | 0 mm | - | 110 W/m² | - |
| 1777677457 | 25° C | 16% | 1016.2 hPa | 0 mm | - | 60 W/m² | - |
| 1777677155 | 25.56° C | 15% | 1016.4 hPa | 0 mm | - | 67 W/m² | - |
| 1777676853 | 25.56° C | 14% | 1016.4 hPa | 0 mm | - | 69 W/m² | - |
| 1777676551 | 25.56° C | 17% | 1016.5 hPa | 0 mm | - | 74 W/m² | - |
| 1777676249 | 25° C | 18% | 1016.5 hPa | 0 mm | - | 85 W/m² | - |
| 1777675946 | 25° C | 14% | 1016.6 hPa | 0 mm | - | 85 W/m² | - |
| 1777675641 | 25° C | 14% | 1016.8 hPa | 0 mm | - | 80 W/m² | - |
* Rain latest hour (hover to see other rain measurements)
** Current wind speed in m/s (hover to see current wind gust speed)